Radiation Dose at Monitoring Post of Fukushima Daini Nuclear Power Station
Date,Time,MP-1(microSv/h),MP-2(microSv/h),MP-3(microSv/h),MP-4(microSv/h),MP-5(microSv/h),MP-6(microSv/h),MP-7(microSv/h),Wind Direction,Wind Velocity(m/s),Rain
2022/01/10,00:00,0.162,0.150,0.233,0.228,0.231,0.127,0.080,north,2.4,No
2022/01/10,00:10,0.163,0.150,0.232,0.227,0.230,0.126,0.081,north,2.1,No
2022/01/10,00:20,0.163,0.150,0.231,0.229,0.228,0.126,0.081,north,1.8,No
2022/01/10,00:30,0.162,0.150,0.232,0.226,0.228,0.127,0.082,north,3.2,No
2022/01/10,00:40,0.162,0.150,0.233,0.227,0.228,0.125,0.081,north,4.1,No
2022/01/10,00:50,0.162,0.149,0.232,0.227,0.229,0.127,0.081,north,4.8,No
2022/01/10,01:00,0.161,0.150,0.233,0.227,0.229,0.127,0.081,north,5.1,No
2022/01/10,01:10,0.162,0.150,0.233,0.228,0.230,0.127,0.081,north-northwest,5.2,No
2022/01/10,01:20,0.163,0.150,0.232,0.227,0.229,0.126,0.080,north-northwest,5.9,No
2022/01/10,01:30,0.163,0.150,0.233,0.227,0.228,0.127,0.081,north-northwest,6.6,No
2022/01/10,01:40,0.163,0.151,0.233,0.229,0.230,0.126,0.081,north-northwest,6.6,No
2022/01/10,01:50,0.163,0.151,0.234,0.227,0.229,0.127,0.081,northwest,6.9,No
2022/01/10,02:00,0.163,0.150,0.233,0.227,0.228,0.126,0.081,north-northwest,6.4,No
2022/01/10,02:10,0.163,0.150,0.232,0.229,0.229,0.127,0.081,north-northwest,5.2,No
2022/01/10,02:20,0.162,0.151,0.231,0.227,0.231,0.127,0.081,north-northwest,4.7,No
2022/01/10,02:30,0.163,0.150,0.234,0.228,0.229,0.126,0.081,north,5.4,No
2022/01/10,02:40,0.163,0.150,0.233,0.228,0.230,0.127,0.081,north,5.2,No
2022/01/10,02:50,0.163,0.150,0.233,0.228,0.230,0.126,0.081,north,5.9,No
2022/01/10,03:00,0.163,0.150,0.232,0.228,0.230,0.127,0.081,north,6.0,No
2022/01/10,03:10,0.162,0.151,0.232,0.229,0.229,0.127,0.081,north-northwest,6.1,No
2022/01/10,03:20,0.163,0.150,0.233,0.228,0.230,0.128,0.081,north-northwest,7.5,No
2022/01/10,03:30,0.163,0.150,0.232,0.227,0.230,0.127,0.080,north-northwest,6.6,No
2022/01/10,03:40,0.163,0.150,0.233,0.228,0.230,0.127,0.081,north-northwest,6.1,No
2022/01/10,03:50,0.162,0.150,0.232,0.228,0.228,0.127,0.081,north,6.0,No
2022/01/10,04:00,0.164,0.150,0.233,0.228,0.229,0.127,0.081,north-northwest,6.6,No
2022/01/10,04:10,0.163,0.150,0.232,0.228,0.230,0.126,0.081,north-northwest,7.2,No
2022/01/10,04:20,0.163,0.151,0.233,0.228,0.229,0.128,0.081,north-northwest,6.8,No
2022/01/10,04:30,0.163,0.151,0.232,0.228,0.229,0.128,0.081,north-northwest,7.2,No
2022/01/10,04:40,0.163,0.150,0.233,0.228,0.229,0.127,0.080,north-northwest,6.6,No
2022/01/10,04:50,0.163,0.149,0.232,0.227,0.230,0.127,0.081,north-northwest,5.9,No
2022/01/10,05:00,0.161,0.150,0.233,0.228,0.229,0.126,0.080,north,4.8,No
2022/01/10,05:10,0.163,0.150,0.233,0.228,0.229,0.128,0.081,north,5.2,No
2022/01/10,05:20,0.164,0.150,0.234,0.227,0.229,0.126,0.082,north,4.6,No
2022/01/10,05:30,0.163,0.150,0.233,0.227,0.230,0.127,0.081,north,4.8,No
2022/01/10,05:40,0.163,0.151,0.233,0.228,0.229,0.127,0.081,north,5.2,No
2022/01/10,05:50,0.163,0.149,0.233,0.228,0.230,0.127,0.081,north-northwest,5.4,No
2022/01/10,06:00,0.162,0.150,0.232,0.229,0.230,0.126,0.082,north,5.7,No
2022/01/10,06:10,0.163,0.151,0.232,0.228,0.230,0.127,0.081,north-northwest,6.3,No
2022/01/10,06:20,0.162,0.150,0.233,0.227,0.229,0.127,0.080,north-northwest,6.5,No
2022/01/10,06:30,0.162,0.151,0.233,0.228,0.230,0.127,0.081,north-northwest,6.3,No
2022/01/10,06:40,0.163,0.150,0.233,0.227,0.231,0.126,0.081,north-northwest,6.7,No
2022/01/10,06:50,0.163,0.151,0.232,0.228,0.229,0.127,0.081,north-northwest,5.8,No
2022/01/10,07:00,0.162,0.150,0.233,0.228,0.229,0.127,0.081,north,5.8,No
2022/01/10,07:10,0.163,0.149,0.233,0.229,0.230,0.126,0.081,north-northwest,6.0,No
2022/01/10,07:20,0.163,0.150,0.233,0.228,0.229,0.127,0.080,north-northwest,5.8,No
2022/01/10,07:30,0.163,0.151,0.233,0.228,0.228,0.127,0.081,north-northwest,6.0,No
2022/01/10,07:40,0.162,0.150,0.232,0.228,0.230,0.127,0.081,north,5.5,No
2022/01/10,07:50,0.162,0.150,0.232,0.227,0.229,0.127,0.080,north,5.2,No
2022/01/10,08:00,0.163,0.150,0.234,0.227,0.229,0.127,0.080,north,6.3,No
2022/01/10,08:10,0.163,0.149,0.233,0.226,0.228,0.127,0.080,north-northwest,4.4,No
2022/01/10,08:20,0.161,0.149,0.232,0.228,0.229,0.127,0.081,north-northwest,4.1,No
2022/01/10,08:30,0.163,0.150,0.232,0.227,0.228,0.128,0.081,north,4.6,No
2022/01/10,08:40,0.163,0.150,0.232,0.228,0.228,0.127,0.081,north-northwest,4.4,No
2022/01/10,08:50,0.163,0.150,0.233,0.227,0.230,0.127,0.080,north-northwest,3.8,No
2022/01/10,09:00,0.163,0.150,0.232,0.228,0.229,0.127,0.080,north-northwest,3.3,No
2022/01/10,09:10,0.163,0.150,0.231,0.227,0.229,0.126,0.080,north-northwest,4.3,No
2022/01/10,09:20,0.162,0.150,0.231,0.227,0.228,0.127,0.080,north-northwest,3.0,No
2022/01/10,09:30,0.162,0.150,0.233,0.228,0.229,0.125,0.081,north,3.0,No
2022/01/10,09:40,0.162,0.150,0.232,0.227,0.230,0.128,0.081,north,3.2,No
2022/01/10,09:50,0.163,0.150,0.231,0.227,0.229,0.127,0.080,north,4.3,No
2022/01/10,10:00,0.162,0.150,0.233,0.227,0.229,0.128,0.081,north,4.4,No
2022/01/10,10:10,0.162,0.150,0.231,0.228,0.230,0.127,0.081,north,4.4,No
2022/01/10,10:20,0.163,0.151,0.232,0.228,0.229,0.127,0.081,north,4.1,No
2022/01/10,10:30,0.163,0.150,0.231,0.228,0.230,0.126,0.080,north,4.4,No
2022/01/10,10:40,0.162,0.150,0.232,0.228,0.229,0.127,0.081,north,4.0,No
2022/01/10,10:50,0.162,0.149,0.233,0.228,0.230,0.126,0.081,north,4.4,No
2022/01/10,11:00,0.163,0.150,0.232,0.227,0.230,0.126,0.080,north-northeast,4.4,No
2022/01/10,11:10,0.163,0.149,0.232,0.227,0.229,0.127,0.080,north,5.1,No
2022/01/10,11:20,0.163,0.150,0.233,0.229,0.229,0.127,0.081,north-northwest,5.5,No
2022/01/10,11:30,0.161,0.150,0.233,0.228,0.229,0.127,0.081,north,4.6,No
2022/01/10,11:40,0.163,0.150,0.231,0.228,0.229,0.127,0.080,north,5.1,No
2022/01/10,11:50,0.163,0.149,0.233,0.229,0.230,0.127,0.081,north,5.0,No
2022/01/10,12:00,0.163,0.150,0.232,0.228,0.229,0.126,0.080,north,5.7,No
2022/01/10,12:10,0.162,0.149,0.233,0.227,0.228,0.126,0.081,north-northeast,4.9,No
2022/01/10,12:20,0.162,0.149,0.231,0.226,0.230,0.128,0.081,north,5.1,No
2022/01/10,12:30,0.162,0.149,0.232,0.227,0.230,0.127,0.080,north-northeast,5.2,No
2022/01/10,12:40,0.163,0.149,0.233,0.227,0.228,0.127,0.080,north,5.1,No
2022/01/10,12:50,0.162,0.150,0.232,0.226,0.229,0.127,0.079,north,5.7,No
2022/01/10,13:00,0.162,0.149,0.232,0.225,0.229,0.127,0.081,north,5.5,No
2022/01/10,13:10,0.163,0.150,0.232,0.229,0.229,0.126,0.080,north-northeast,5.7,No
2022/01/10,13:20,0.163,0.149,0.232,0.227,0.229,0.126,0.081,north,5.5,No
2022/01/10,13:30,0.162,0.149,0.233,0.226,0.228,0.126,0.080,north-northeast,5.5,No
2022/01/10,13:40,0.163,0.150,0.233,0.228,0.230,0.127,0.080,north,5.1,No
2022/01/10,13:50,0.161,0.149,0.232,0.227,0.229,0.127,0.081,north-northeast,5.2,No
2022/01/10,14:00,0.162,0.149,0.233,0.229,0.228,0.127,0.080,north-northeast,4.9,No
2022/01/10,14:10,0.163,0.150,0.232,0.227,0.230,0.127,0.080,north,4.9,No
2022/01/10,14:20,0.163,0.149,0.233,0.227,0.229,0.127,0.081,north,5.1,No
2022/01/10,14:30,0.163,0.150,0.233,0.228,0.230,0.126,0.081,north-northeast,5.5,No
2022/01/10,14:40,0.162,0.150,0.232,0.226,0.229,0.126,0.081,north,4.1,No
2022/01/10,14:50,0.164,0.150,0.233,0.228,0.229,0.125,0.080,north,3.7,No
2022/01/10,15:00,0.163,0.149,0.232,0.227,0.230,0.126,0.081,north,3.8,No
2022/01/10,15:10,0.161,0.150,0.232,0.228,0.230,0.126,0.080,north,5.0,No
2022/01/10,15:20,0.163,0.151,0.233,0.229,0.230,0.126,0.080,north,5.2,No
2022/01/10,15:30,0.163,0.150,0.233,0.228,0.231,0.127,0.081,north,4.6,No
2022/01/10,15:40,0.163,0.150,0.233,0.228,0.230,0.127,0.080,north-northwest,2.7,No
2022/01/10,15:50,0.162,0.151,0.233,0.229,0.228,0.128,0.081,north,3.0,No
2022/01/10,16:00,0.163,0.150,0.232,0.228,0.230,0.127,0.081,north-northwest,3.5,No
2022/01/10,16:10,0.163,0.151,0.232,0.228,0.230,0.127,0.080,north,3.7,No
2022/01/10,16:20,0.162,0.150,0.233,0.228,0.230,0.127,0.081,north-northwest,4.1,No
2022/01/10,16:30,0.162,0.148,0.233,0.228,0.229,0.127,0.080,north-northwest,3.8,No
2022/01/10,16:40,0.163,0.150,0.233,0.228,0.229,0.126,0.081,north-northwest,4.1,No
2022/01/10,16:50,0.162,0.150,0.232,0.227,0.230,0.127,0.080,northwest,4.0,No
2022/01/10,17:00,0.163,0.150,0.232,0.228,0.228,0.127,0.080,northwest,4.7,No
2022/01/10,17:10,0.162,0.151,0.232,0.227,0.229,0.127,0.080,north-northwest,5.2,No
2022/01/10,17:20,0.162,0.150,0.232,0.229,0.230,0.127,0.081,northwest,5.4,No
2022/01/10,17:30,0.162,0.149,0.232,0.227,0.230,0.127,0.081,northwest,5.0,No
2022/01/10,17:40,0.162,0.150,0.234,0.227,0.228,0.126,0.080,north-northwest,4.8,No
2022/01/10,17:50,0.162,0.150,0.233,0.228,0.229,0.127,0.080,northwest,5.8,No
2022/01/10,18:00,0.163,0.150,0.233,0.228,0.229,0.127,0.080,north-northwest,6.1,No
2022/01/10,18:10,0.162,0.150,0.233,0.228,0.229,0.127,0.080,northwest,6.5,No
2022/01/10,18:20,0.162,0.149,0.233,0.228,0.229,0.127,0.080,northwest,6.8,No
2022/01/10,18:30,0.163,0.151,0.232,0.228,0.229,0.126,0.080,northwest,6.2,No
2022/01/10,18:40,0.162,0.150,0.233,0.227,0.228,0.127,0.082,northwest,6.6,No
2022/01/10,18:50,0.163,0.150,0.232,0.227,0.228,0.127,0.080,northwest,6.9,No
2022/01/10,19:00,0.163,0.151,0.232,0.229,0.229,0.127,0.081,northwest,6.5,No
2022/01/10,19:10,0.163,0.150,0.231,0.228,0.228,0.127,0.081,northwest,6.3,No
2022/01/10,19:20,0.164,0.149,0.232,0.227,0.229,0.127,0.080,northwest,5.5,No
2022/01/10,19:30,0.163,0.149,0.233,0.228,0.230,0.127,0.081,northwest,5.8,No
2022/01/10,19:40,0.162,0.150,0.233,0.228,0.229,0.127,0.081,north-northwest,5.0,No
2022/01/10,19:50,0.163,0.149,0.232,0.228,0.228,0.126,0.080,northwest,4.8,No
2022/01/10,20:00,0.162,0.150,0.234,0.227,0.229,0.126,0.081,northwest,4.6,No
2022/01/10,20:10,0.162,0.150,0.233,0.230,0.229,0.127,0.081,northwest,4.6,No
2022/01/10,20:20,0.162,0.149,0.232,0.228,0.230,0.126,0.080,northwest,4.4,No
2022/01/10,20:30,0.163,0.150,0.232,0.227,0.230,0.126,0.080,northwest,4.4,No
2022/01/10,20:40,0.162,0.148,0.232,0.227,0.229,0.127,0.080,northwest,4.1,No
2022/01/10,20:50,0.163,0.149,0.233,0.228,0.229,0.126,0.081,northwest,4.1,No
2022/01/10,21:00,0.163,0.150,0.233,0.228,0.229,0.127,0.080,northwest,4.1,No
2022/01/10,21:10,0.162,0.150,0.232,0.227,0.230,0.127,0.081,northwest,3.8,No
2022/01/10,21:20,0.163,0.150,0.233,0.228,0.229,0.126,0.080,northwest,3.5,No
2022/01/10,21:30,0.162,0.150,0.232,0.228,0.229,0.127,0.080,northwest,3.2,No
2022/01/10,21:40,0.163,0.150,0.232,0.227,0.230,0.127,0.080,northwest,3.0,No
2022/01/10,21:50,0.163,0.150,0.234,0.228,0.230,0.127,0.080,northwest,2.7,No
2022/01/10,22:00,0.162,0.150,0.232,0.228,0.229,0.126,0.080,northwest,2.2,No
2022/01/10,22:10,0.162,0.150,0.233,0.229,0.230,0.126,0.081,northwest,1.8,No
2022/01/10,22:20,0.162,0.149,0.233,0.228,0.229,0.127,0.081,north-northwest,1.0,No
2022/01/10,22:30,0.164,0.150,0.232,0.228,0.229,0.127,0.081,north-northwest,2.7,No
2022/01/10,22:40,0.163,0.149,0.232,0.227,0.228,0.126,0.081,north,1.3,No
2022/01/10,22:50,0.163,0.150,0.234,0.227,0.228,0.126,0.080,north,2.1,No
2022/01/10,23:00,0.163,0.150,0.233,0.228,0.229,0.128,0.081,north-northwest,2.2,No
2022/01/10,23:10,0.161,0.149,0.232,0.228,0.227,0.127,0.080,north,1.8,No
2022/01/10,23:20,0.163,0.150,0.232,0.228,0.229,0.127,0.081,northwest,3.0,No
2022/01/10,23:30,0.163,0.150,0.233,0.227,0.229,0.127,0.080,northwest,2.9,No
2022/01/10,23:40,0.163,0.150,0.232,0.227,0.229,0.127,0.081,north-northwest,1.9,No
2022/01/10,23:50,0.162,0.150,0.234,0.228,0.230,0.127,0.081,west-northwest,0.7,No
